When you browse on this site, cookies collect data to enhance your experience and personalize the content and advertising you see.
Visit our Privacy Policy to learn more. By continuing to use the site, you agree to this use of cookies and data.
  • In Österreich
  • Länderverzeichnis
  • Für 7 Tage
  • Wassertemperatur
  • Satellitenkarten
  • Wetterkarte
  • News
  • Widgets
  • user-avatar
    Anmelden

    Stündliche Wetter Chetumal

    Heute, 13 Dezember, Donnerstag

    Zeit Temperatur Niederschläge Wind Luftdruck Luftfeuchtigkeit
    00:00 +21°C° 0 mm 2 m/S 760 mmHg 95%
    01:00 +21°C° 0.2 mm 2 m/S 760 mmHg 95%
    02:00 +22°C° 0.2 mm 1 m/S 759 mmHg 96%
    03:00 +22°C° 0.2 mm 1 m/S 759 mmHg 97%
    04:00 +22°C° 0.1 mm 1 m/S 759 mmHg 97%
    05:00 +23°C° 0.1 mm 1 m/S 759 mmHg 97%
    06:00 +23°C° 0.1 mm 1 m/S 759 mmHg 97%
    07:00 +24°C° 0 mm 1 m/S 760 mmHg 92%
    08:00 +26°C° 0 mm 2 m/S 760 mmHg 88%
    09:00 +27°C° 0 mm 2 m/S 760 mmHg 84%
    10:00 +29°C° 0 mm 2 m/S 760 mmHg 76%
    11:00 +30°C° 0 mm 3 m/S 759 mmHg 67%
    12:00 +33°C° 0 mm 3 m/S 759 mmHg 59%
    13:00 +33°C° 0 mm 3 m/S 758 mmHg 59%
    14:00 +33°C° 0 mm 3 m/S 758 mmHg 59%
    15:00 +33°C° 0 mm 3 m/S 757 mmHg 60%
    16:00 +30°C° 0 mm 3 m/S 757 mmHg 68%
    17:00 +28°C° 0 mm 3 m/S 757 mmHg 77%
    18:00 +26°C° 0 mm 3 m/S 757 mmHg 86%
    19:00 +25°C° 0 mm 2 m/S 758 mmHg 90%
    20:00 +25°C° 0 mm 2 m/S 758 mmHg 93%
    21:00 +24°C° 0 mm 2 m/S 759 mmHg 96%
    22:00 +24°C° 0 mm 2 m/S 758 mmHg 96%
    23:00 +24°C° 0 mm 3 m/S 758 mmHg 95%

    Morgen, 14 Dezember, Freitag

    Zeit Temperatur Niederschläge Wind Luftdruck Luftfeuchtigkeit
    00:00 +24°C° 0 mm 3 m/S 758 mmHg 94%
    01:00 +24°C° 0 mm 2 m/S 758 mmHg 95%
    02:00 +24°C° 0 mm 2 m/S 758 mmHg 96%
    03:00 +24°C° 0 mm 2 m/S 758 mmHg 97%
    04:00 +24°C° 0 mm 2 m/S 758 mmHg 97%
    05:00 +24°C° 0 mm 2 m/S 758 mmHg 97%
    06:00 +24°C° 0 mm 2 m/S 758 mmHg 97%
    07:00 +26°C° 0 mm 2 m/S 759 mmHg 89%
    08:00 +28°C° 0 mm 2 m/S 760 mmHg 81%
    09:00 +30°C° 0 mm 2 m/S 760 mmHg 73%
    10:00 +31°C° 0.1 mm 2 m/S 760 mmHg 69%
    11:00 +32°C° 0.1 mm 2 m/S 760 mmHg 65%
    12:00 +32°C° 0.1 mm 2 m/S 759 mmHg 61%
    13:00 +32°C° 0.9 mm 2 m/S 759 mmHg 67%
    14:00 +31°C° 0.9 mm 2 m/S 759 mmHg 73%
    15:00 +30°C° 0.9 mm 1 m/S 758 mmHg 80%
    16:00 +28°C° 0.5 mm 1 m/S 759 mmHg 84%
    17:00 +27°C° 0.5 mm 2 m/S 759 mmHg 89%
    18:00 +25°C° 0.5 mm 2 m/S 760 mmHg 94%
    19:00 +24°C° 0.2 mm 3 m/S 761 mmHg 94%
    20:00 +22°C° 0.2 mm 3 m/S 761 mmHg 95%
    21:00 +22°C° 0.2 mm 4 m/S 762 mmHg 95%
    22:00 +21°C° 0.1 mm 4 m/S 762 mmHg 94%
    23:00 +21°C° 0.1 mm 4 m/S 763 mmHg 93%

    übermorgen, 15 Dezember, Samstag

    Zeit Temperatur Niederschläge Wind Luftdruck Luftfeuchtigkeit
    00:00 +20°C° 0.1 mm 4 m/S 763 mmHg 92%
    01:00 +20°C° 0 mm 4 m/S 763 mmHg 89%
    02:00 +20°C° 0 mm 4 m/S 762 mmHg 86%
    03:00 +20°C° 0 mm 4 m/S 762 mmHg 84%
    04:00 +20°C° 0 mm 3 m/S 763 mmHg 81%
    05:00 +20°C° 0 mm 3 m/S 763 mmHg 79%
    06:00 +20°C° 0 mm 3 m/S 763 mmHg 76%
    07:00 +21°C° 0 mm 3 m/S 764 mmHg 72%
    08:00 +22°C° 0 mm 3 m/S 765 mmHg 68%
    09:00 +22°C° 0 mm 3 m/S 765 mmHg 64%
    10:00 +25°C° 0 mm 3 m/S 765 mmHg 59%
    11:00 +26°C° 0 mm 3 m/S 764 mmHg 54%
    12:00 +27°C° 0 mm 3 m/S 764 mmHg 50%
    13:00 +28°C° 0 mm 3 m/S 763 mmHg 49%
    14:00 +28°C° 0 mm 3 m/S 763 mmHg 48%
    15:00 +29°C° 0 mm 2 m/S 762 mmHg 47%
    16:00 +27°C° 0 mm 2 m/S 762 mmHg 54%
    17:00 +25°C° 0 mm 2 m/S 763 mmHg 61%
    18:00 +23°C° 0 mm 2 m/S 763 mmHg 68%
    19:00 +23°C° 0 mm 2 m/S 764 mmHg 70%
    20:00 +23°C° 0 mm 2 m/S 764 mmHg 72%
    21:00 +21°C° 0 mm 2 m/S 765 mmHg 74%
    22:00 +20°C° 0 mm 2 m/S 765 mmHg 77%
    23:00 +20°C° 0 mm 2 m/S 765 mmHg 80%

    16 Dezember, Sonntag

    Zeit Temperatur Niederschläge Wind Luftdruck Luftfeuchtigkeit
    00:00 +19°C° 0 mm 2 m/S 765 mmHg 83%
    01:00 +19°C° 0 mm 2 m/S 764 mmHg 84%
    02:00 +18°C° 0 mm 2 m/S 764 mmHg 86%
    03:00 +18°C° 0 mm 2 m/S 764 mmHg 88%
    04:00 +18°C° 0 mm 3 m/S 764 mmHg 87%
    05:00 +18°C° 0 mm 3 m/S 765 mmHg 85%
    06:00 +18°C° 0 mm 3 m/S 765 mmHg 84%
    07:00 +19°C° 0 mm 3 m/S 766 mmHg 79%
    08:00 +21°C° 0 mm 3 m/S 766 mmHg 73%
    09:00 +22°C° 0 mm 3 m/S 766 mmHg 68%
    10:00 +25°C° 0 mm 3 m/S 766 mmHg 63%
    11:00 +26°C° 0 mm 3 m/S 765 mmHg 58%
    12:00 +28°C° 0 mm 3 m/S 764 mmHg 53%
    13:00 +28°C° 0 mm 2 m/S 764 mmHg 52%
    14:00 +28°C° 0 mm 2 m/S 763 mmHg 51%
    15:00 +29°C° 0 mm 2 m/S 762 mmHg 51%
    16:00 +27°C° 0 mm 2 m/S 763 mmHg 56%
    17:00 +26°C° 0 mm 2 m/S 763 mmHg 62%
    18:00 +24°C° 0 mm 2 m/S 763 mmHg 68%
    19:00 +24°C° 0 mm 2 m/S 764 mmHg 70%
    20:00 +23°C° 0 mm 2 m/S 764 mmHg 72%
    21:00 +21°C° 0 mm 3 m/S 765 mmHg 74%
    22:00 +21°C° 0 mm 3 m/S 765 mmHg 77%
    23:00 +20°C° 0 mm 3 m/S 764 mmHg 80%

    17 Dezember, Montag

    Zeit Temperatur Niederschläge Wind Luftdruck Luftfeuchtigkeit
    00:00 +19°C° 0 mm 3 m/S 764 mmHg 82%
    01:00 +19°C° 0 mm 3 m/S 764 mmHg 83%
    02:00 +18°C° 0 mm 3 m/S 764 mmHg 85%
    03:00 +18°C° 0 mm 3 m/S 763 mmHg 86%
    04:00 +18°C° 0 mm 3 m/S 764 mmHg 86%
    05:00 +18°C° 0 mm 3 m/S 764 mmHg 85%
    06:00 +18°C° 0 mm 3 m/S 765 mmHg 85%
    07:00 +19°C° 0 mm 3 m/S 765 mmHg 79%
    08:00 +21°C° 0 mm 3 m/S 765 mmHg 72%
    09:00 +22°C° 0 mm 3 m/S 766 mmHg 66%
    10:00 +25°C° 0 mm 3 m/S 765 mmHg 61%
    11:00 +26°C° 0 mm 3 m/S 764 mmHg 56%
    12:00 +28°C° 0 mm 3 m/S 764 mmHg 51%
    13:00 +28°C° 0 mm 3 m/S 763 mmHg 51%
    14:00 +28°C° 0 mm 2 m/S 762 mmHg 50%
    15:00 +28°C° 0 mm 2 m/S 762 mmHg 50%
    16:00 +27°C° 0 mm 2 m/S 762 mmHg 57%
    17:00 +25°C° 0 mm 2 m/S 762 mmHg 64%
    18:00 +23°C° 0 mm 2 m/S 763 mmHg 70%
    19:00 +23°C° 0 mm 2 m/S 763 mmHg 72%
    20:00 +21°C° 0 mm 2 m/S 764 mmHg 74%
    21:00 +20°C° 0 mm 2 m/S 764 mmHg 76%
    22:00 +20°C° 0 mm 2 m/S 764 mmHg 78%
    23:00 +19°C° 0 mm 2 m/S 763 mmHg 81%

    18 Dezember, Dienstag

    Zeit Temperatur Niederschläge Wind Luftdruck Luftfeuchtigkeit
    00:00 +19°C° 0 mm 3 m/S 763 mmHg 83%
    01:00 +18°C° 0 mm 2 m/S 763 mmHg 85%
    02:00 +18°C° 0 mm 2 m/S 763 mmHg 87%
    03:00 +18°C° 0 mm 2 m/S 763 mmHg 89%
    04:00 +17°C° 0 mm 2 m/S 763 mmHg 89%
    05:00 +17°C° 0 mm 2 m/S 763 mmHg 90%
    06:00 +17°C° 0 mm 2 m/S 763 mmHg 90%
    07:00 +19°C° 0 mm 2 m/S 764 mmHg 82%
    08:00 +20°C° 0 mm 2 m/S 764 mmHg 74%
    09:00 +22°C° 0 mm 3 m/S 764 mmHg 66%
    10:00 +25°C° 0 mm 2 m/S 764 mmHg 60%
    11:00 +26°C° 0 mm 2 m/S 763 mmHg 54%
    12:00 +28°C° 0 mm 2 m/S 763 mmHg 48%
    13:00 +28°C° 0 mm 2 m/S 762 mmHg 48%
    14:00 +29°C° 0 mm 2 m/S 761 mmHg 47%
    15:00 +29°C° 0 mm 2 m/S 761 mmHg 47%
    16:00 +27°C° 0 mm 2 m/S 761 mmHg 54%
    17:00 +25°C° 0 mm 2 m/S 761 mmHg 61%
    18:00 +24°C° 0 mm 2 m/S 762 mmHg 68%
    19:00 +23°C° 0 mm 2 m/S 762 mmHg 71%
    20:00 +21°C° 0 mm 2 m/S 762 mmHg 75%
    21:00 +21°C° 0 mm 2 m/S 763 mmHg 78%
    22:00 +21°C° 0 mm 2 m/S 763 mmHg 81%
    23:00 +20°C° 0 mm 2 m/S 762 mmHg 84%
    Mehr zeigen